Metropolis, IL

9:08 PM CDT on June 26, 2017 (GMT -0500)
Metropolis

Weather History for KM30 - January, 2013

Change the Weather History Date:

Sunday, January 13, 2013

  Actual Average (KPAH) Record (KPAH)
Temperature  
Mean Temperature 36 °F -  
Max Temperature 46 °F 41 °F 68 °F (1995)
Min Temperature 26 °F 22 °F 0 °F (1977)
Degree Days  
Heating Degree Days 29    
Moisture  
Dew Point 32 °F    
Average Humidity 95    
Maximum Humidity 100    
Minimum Humidity 81    
Precipitation  
Precipitation 1.20 in - - ()
Sea Level Pressure  
Sea Level Pressure 30.06 in    
Wind  
Wind Speed 10 mph (NNW)    
Max Wind Speed 16 mph    
Max Gust Speed 24 mph    
Visibility 9 miles    
Events Rain , Thunderstorm    
Averages and records for this station are not official NWS values.
T = Trace of Precipitation, MM = Missing Value Source: NWS Daily Summary

Daily Weather History Graph

Daily Weather History Graph

Search for Another Location

Airport or City:

Trip Planner

Search our weather history database for the weather conditions in past years. The results will help you decide how hot, cold, wet, or windy it might be!

Date:

Astronomy

Jan. 13, 2013 Rise Set
Actual Time 7:08 AM CST 4:59 PM CST
Civil Twilight 6:39 AM CST 5:28 PM CST
Nautical Twilight 6:07 AM CST 6:00 PM CST
Astronomical Twilight 5:36 AM CST 6:31 PM CST
Moon 8:10 AM CST (1/13) 7:33 PM CST (1/13)
Length of Visible Light 10h 48m
Length of Day
9h 51m
Waxing Crescent, 5% of the Moon is Illuminated
Jan 13
Waxing Crescent
Jan 18
First Quarter
Jan 26
Full
Feb 3
Last Quarter
Feb 10
New

Hourly Weather History & Observations

Time (CST) Temp. Windchill Dew Point Humidity Pressure Visibility Wind Dir Wind Speed Gust Speed Precip Events Conditions
12:15 AM 46.0 °F 41.0 °F 46.0 °F 100% 29.82 in 7.0 mi NW 10.4 mph 23.0 mph 0.10 in Rain Heavy Rain
12:55 AM 42.1 °F 34.5 °F 42.1 °F 100% 29.82 in 5.0 mi NNW 15.0 mph 24.2 mph 0.29 in Rain , Thunderstorm Heavy Thunderstorms and Rain
1:15 AM 41.5 °F 37.8 °F 41.5 °F 100% 29.83 in 7.0 mi North 5.8 mph 9.2 mph 0.06 in Rain Rain
1:35 AM 41.2 °F 34.5 °F 41.2 °F 100% 29.84 in 10.0 mi NNW 11.5 mph 16.1 mph 0.12 in Rain , Thunderstorm Rain
1:55 AM 40.6 °F 34.3 °F 40.6 °F 100% 29.87 in 10.0 mi NNW 10.4 mph 16.1 mph 0.19 in Rain Rain
2:15 AM 39.2 °F 31.6 °F 39.2 °F 100% 29.88 in 7.0 mi North 12.7 mph 20.7 mph 0.07 in Rain Heavy Rain
3:35 AM 37.4 °F 31.4 °F 37.4 °F 100% 29.87 in 7.0 mi North 8.1 mph - 0.09 in Rain Heavy Rain
3:55 AM 37.4 °F 33.8 °F 37.4 °F 100% 29.87 in 7.0 mi North 4.6 mph - 0.16 in Rain Rain
4:35 AM 37.6 °F 34.0 °F 37.6 °F 100% 29.89 in 7.0 mi North 4.6 mph - 0.13 in Rain Rain
4:55 AM 37.8 °F 32.5 °F 37.8 °F 100% 29.90 in 10.0 mi North 6.9 mph - 0.16 in Rain , Thunderstorm Rain
5:15 AM 37.6 °F 31.0 °F 37.6 °F 100% 29.86 in 10.0 mi North 9.2 mph - 0.02 in Rain , Thunderstorm Rain
5:35 AM 37.8 °F 33.3 °F 37.8 °F 100% 29.92 in 10.0 mi NNW 5.8 mph - 0.04 in Rain Light Rain
5:55 AM 37.6 °F 31.6 °F 37.6 °F 100% 29.95 in 10.0 mi NNW 8.1 mph - 0.04 in   Light Drizzle
6:15 AM 37.8 °F 33.3 °F 37.8 °F 100% 29.98 in 10.0 mi NW 5.8 mph - N/A   Overcast
6:35 AM 37.4 °F 30.8 °F 37.4 °F 100% 29.94 in 7.0 mi North 9.2 mph 17.3 mph N/A Rain Light Rain
6:55 AM 37.4 °F 30.8 °F 37.4 °F 100% 29.95 in 5.0 mi North 9.2 mph 16.1 mph N/A   Overcast
7:15 AM 37.4 °F 30.8 °F 37.4 °F 100% 29.93 in 10.0 mi North 9.2 mph 16.1 mph N/A   Overcast
7:35 AM 37.4 °F 30.3 °F 37.4 °F 100% 29.93 in 10.0 mi North 10.4 mph 16.1 mph N/A   Overcast
7:55 AM 37.4 °F 29.3 °F 37.4 °F 100% 29.96 in 10.0 mi North 12.7 mph - N/A Rain Light Rain
8:15 AM 37.2 °F 27.9 °F 37.2 °F 100% 29.95 in 1.8 mi North 16.1 mph 21.9 mph N/A   Drizzle
8:35 AM 37.2 °F 30.6 °F 37.2 °F 100% 29.97 in 1.8 mi North 9.2 mph - N/A Rain Light Rain
9:15 AM 36.7 °F 30.5 °F 36.7 °F 100% 29.96 in 2.0 mi North 8.1 mph - N/A   Overcast
9:35 AM 36.0 °F 26.7 °F 36.0 °F 100% 30.00 in 3.0 mi NNW 15.0 mph 18.4 mph N/A Rain Rain
9:55 AM 35.8 °F 28.3 °F 35.8 °F 100% 29.96 in 4.0 mi North 10.4 mph 19.6 mph 0.03 in Rain Rain
10:15 AM 35.8 °F 27.3 °F 35.8 °F 100% 29.96 in 7.0 mi North 12.7 mph - 0.03 in Rain Rain
10:35 AM 35.6 °F 28.6 °F 35.6 °F 100% 29.96 in 4.0 mi North 9.2 mph - 0.09 in Rain Heavy Rain
11:15 AM 34.5 °F 25.3 °F 34.5 °F 100% 29.99 in 4.0 mi NW 13.8 mph 17.3 mph 0.05 in Rain Rain
11:55 AM 32.9 °F 23.7 °F 32.9 °F 100% 29.98 in 7.0 mi NNW 12.7 mph 23.0 mph 0.09 in Rain Rain
12:15 PM 32.5 °F 22.7 °F 32.5 °F 100% 30.00 in 10.0 mi NNW 13.8 mph 19.6 mph 0.02 in Rain Rain
12:35 PM 32.5 °F 23.7 °F 32.5 °F 100% 29.99 in 5.0 mi NNW 11.5 mph - 0.06 in Rain Rain
12:55 PM 32.5 °F 22.3 °F 32.5 °F 100% 29.99 in 10.0 mi NNW 15.0 mph 20.7 mph 0.08 in Rain Light Rain
1:15 PM 32.9 °F 24.1 °F 32.9 °F 100% 30.00 in 10.0 mi NNW 11.5 mph 18.4 mph N/A   Overcast
1:35 PM 32.9 °F 24.1 °F 32.9 °F 100% 29.99 in 10.0 mi NNW 11.5 mph - N/A   Overcast
1:55 PM 32.9 °F 24.1 °F 32.4 °F 98% 30.03 in 10.0 mi NNW 11.5 mph - N/A Rain Light Rain
2:15 PM 32.7 °F 24.5 °F 32.4 °F 99% 30.05 in 10.0 mi NNW 10.4 mph - N/A   Light Drizzle
2:35 PM 32.2 °F 22.3 °F 32.0 °F 99% 30.07 in 10.0 mi NW 13.8 mph 21.9 mph N/A   Light Drizzle
2:55 PM 32.0 °F 22.5 °F 32.0 °F 100% 30.07 in 10.0 mi NW 12.7 mph 23.0 mph N/A   Overcast
3:15 PM 32.0 °F 23.0 °F 31.8 °F 99% 30.11 in 10.0 mi NW 11.5 mph 17.3 mph N/A   Overcast
3:35 PM 32.0 °F 23.6 °F 31.6 °F 99% 30.11 in 10.0 mi NNW 10.4 mph - N/A   Overcast
3:55 PM 32.0 °F 24.2 °F 31.8 °F 99% 30.12 in 10.0 mi NW 9.2 mph - N/A   Overcast
4:15 PM 32.0 °F 23.6 °F 31.8 °F 99% 30.14 in 10.0 mi NW 10.4 mph 16.1 mph N/A   Overcast
4:35 PM 31.5 °F 20.5 °F 30.0 °F 94% 30.16 in 10.0 mi NNW 16.1 mph 20.7 mph N/A   Overcast
4:55 PM 31.1 °F 22.4 °F 30.2 °F 96% 30.16 in 10.0 mi NW 10.4 mph - N/A   Overcast
5:15 PM 30.9 °F 22.2 °F 29.3 °F 94% 30.18 in 10.0 mi NW 10.4 mph - N/A   Overcast
5:35 PM 30.7 °F 23.3 °F 28.8 °F 92% 30.19 in 10.0 mi NW 8.1 mph 16.1 mph N/A   Overcast
5:55 PM 30.6 °F 21.8 °F 27.9 °F 90% 30.20 in 10.0 mi NW 10.4 mph 17.3 mph N/A   Overcast
6:15 PM 30.2 °F 21.9 °F 27.5 °F 90% 30.21 in 10.0 mi NNW 9.2 mph - N/A   Overcast
6:35 PM 29.8 °F 20.9 °F 28.2 °F 94% 30.21 in 10.0 mi NW 10.4 mph - N/A   Mostly Cloudy
6:55 PM 29.3 °F 20.2 °F 27.9 °F 94% 30.21 in 10.0 mi NNW 10.4 mph - N/A   Scattered Clouds
7:15 PM 29.5 °F 21.8 °F 28.4 °F 96% 30.22 in 10.0 mi NNW 8.1 mph - N/A   Mostly Cloudy
7:35 PM 29.5 °F 19.9 °F 27.9 °F 94% 30.22 in 10.0 mi NW 11.5 mph - N/A   Overcast
7:55 PM 28.9 °F 19.8 °F 26.1 °F 89% 30.23 in 10.0 mi NNW 10.4 mph - N/A   Overcast
8:15 PM 28.4 °F 18.5 °F 25.3 °F 88% 30.24 in 10.0 mi NW 11.5 mph - N/A   Overcast
8:35 PM 27.9 °F 18.4 °F 24.6 °F 88% 30.25 in 10.0 mi NNW 10.4 mph - N/A   Overcast
8:55 PM 27.1 °F 17.5 °F 22.3 °F 82% 30.25 in 10.0 mi NNW 10.4 mph - N/A   Mostly Cloudy
9:15 PM 26.6 °F 18.2 °F 21.6 °F 81% 30.26 in 10.0 mi NNW 8.1 mph - N/A   Clear
9:35 PM 26.2 °F 17.8 °F 21.7 °F 83% 30.27 in 10.0 mi NNW 8.1 mph - N/A   Scattered Clouds
9:55 PM 26.2 °F 17.1 °F 21.2 °F 81% 30.28 in 10.0 mi NNW 9.2 mph - N/A   Mostly Cloudy
10:15 PM 26.6 °F 19.1 °F 21.6 °F 81% 30.29 in 10.0 mi NNW 6.9 mph - N/A   Overcast
10:35 PM 26.4 °F 16.6 °F 21.4 °F 81% 30.30 in 10.0 mi NNW 10.4 mph - N/A   Overcast
10:55 PM 26.4 °F 16.6 °F 21.6 °F 82% 30.31 in 10.0 mi NNW 10.4 mph - N/A   Overcast
11:15 PM 26.6 °F 17.5 °F 21.9 °F 82% 30.31 in 10.0 mi North 9.2 mph - N/A   Overcast
11:35 PM 26.6 °F 17.5 °F 22.1 °F 83% 30.32 in 10.0 mi NNW 9.2 mph - N/A   Overcast
11:55 PM 26.1 °F 15.6 °F 20.8 °F 81% 30.32 in 10.0 mi North 11.5 mph 17.3 mph N/A   Overcast